Tracking 19920 objects as of 15-Oct-2019
HD Live streaming from Space Station
objects crossing your sky now

IRIDIUM 33 DEB

Track IRIDIUM 33 DEB now!
10-day predictions


NORAD ID: 33961
Int'l Code: 1997-051BW
Perigee: 666.8 km
Apogee: 692.4 km
Inclination: 86.3 °
Period: 98.2 minutes
Semi major axis: 7050 km
RCS: 0.033 m2 (small)
Launch date: September 14, 1997
Source: United States (US)
Launch site: TYURATAM MISSILE AND SPACE COMPLEX (TTMTR)

Note: This is SATELLITE DEBRIS
aabbcc
Your satellite tracking list
Your tracking list is empty




NASA's NSSDC Master Catalog

Two Line Element Set (TLE):
1 33961U 97051BW  19287.80267439 +.00002331 +00000-0 +41640-3 0  9997
2 33961 086.2739 201.6248 0018148 111.0905 249.2251 14.66426803563673
Source of the keplerian elements: AFSPC